Home   Weather   San Marino   Past weeks

Flag for San Marino Past Weather in San Marino, San Marino — Yesterday and Last 2 Weeks

Now
39 °F

Partly sunny.


Feels Like: 32 °F
Forecast: 30 / 34 °F
Wind: 10 mph from Northwest

Location: Rimini Airport

Current Time: Jan 21, 2017 at 12:09:33 pm

Latest Report: Jan 21, 2017 at 11:15 am


Visibility: N/A

Pressure: 30.45 "Hg (28.05 "Hg at 666m altitude)

Humidity: 65%

Dew Point: 28 °F

Location of San MarinoLocation

Past Weather in San Marino — Graph

°F

San Marino Temperature Yesterday

Maximum temperature yesterday: 41 °F (at 2:45 pm)
Minimum temperature yesterday: 34 °F (at 12:15 am)
Average temperature yesterday: 38 °F

High & Low Weather Summary for the Past Weeks

 TemperatureHumidityPressure
High57 °F (Jan 13, 6:15 am)100% (Jan 9, 10:15 pm)30.48 "Hg (Jan 9, 10:15 pm)
Low23 °F (Jan 12, 12:45 am)23% (Jan 14, 12:45 pm)29.47 "Hg (Jan 13, 12:45 pm)
Average37 °F69%30.11 "Hg
* Reported Jan 6 10:15 am — Jan 21 10:45 am, San Marino, Weather by CustomWeather, © 2017

Note: Actual official high and low records may vary slightly from our data, if they occured in-between our weather recording intervals... More about our weather records

Advertising

San Marino Weather History for the Previous 24 Hours

Scroll right to see more
 ConditionsComfort  
Time TempWeatherWind HumidityBarometerVisibility
10:45 am
Sat, Jan 21
39 °FPartly sunny.8 mph65%30.45 "HgN/A
10:15 am37 °FPartly sunny.7 mph70%30.45 "HgN/A
9:45 am37 °FPartly sunny.6 mph70%30.45 "HgN/A
9:15 am37 °FPartly sunny.7 mph70%30.45 "HgN/A
8:45 am37 °FPartly sunny.8 mph70%30.45 "HgN/A
8:15 am37 °FPartly sunny.6 mph65%30.45 "HgN/A
7:45 am37 °FBroken clouds.8 mph65%30.45 "Hg5 mi
7:15 am37 °FPartly cloudy.9 mph65%30.45 "HgN/A
6:45 am37 °FPartly cloudy.8 mph65%30.45 "HgN/A
6:15 am37 °FPartly cloudy.9 mph70%30.45 "HgN/A
5:45 am37 °FPartly cloudy.10 mph70%30.45 "HgN/A
5:15 am37 °FPartly cloudy.10 mph70%30.45 "HgN/A
4:45 am37 °FOvercast.8 mph70%30.45 "HgN/A
4:15 am39 °FOvercast.8 mph65%30.45 "HgN/A
3:45 am39 °FPartly cloudy.6 mph65%30.48 "HgN/A
3:15 am39 °FPartly cloudy.6 mph65%30.48 "HgN/A
2:45 am39 °FPartly cloudy.6 mph65%30.48 "HgN/A
2:15 am39 °FPartly cloudy.6 mph65%30.48 "HgN/A
1:45 am39 °FOvercast.5 mph70%30.48 "HgN/A
1:15 am39 °FOvercast.6 mph70%30.48 "HgN/A
11:45 pm
Fri, Jan 20
39 °FOvercast.2 mph70%30.48 "HgN/A
11:15 pm39 °FOvercast.No wind65%30.48 "HgN/A
10:45 pm39 °FOvercast.2 mph65%30.48 "HgN/A
10:15 pm39 °FOvercast.2 mph65%30.48 "HgN/A
9:45 pm39 °FOvercast.1 mph65%30.48 "HgN/A
9:15 pm39 °FOvercast.3 mph65%30.48 "HgN/A
8:45 pm39 °FOvercast.2 mph65%30.48 "HgN/A
8:15 pm39 °FPassing clouds.1 mph65%30.48 "HgN/A
7:45 pm39 °FPassing clouds.3 mph65%30.45 "HgN/A
7:15 pm39 °FPassing clouds.3 mph65%30.45 "HgN/A
6:45 pm39 °FPassing clouds.3 mph65%30.45 "HgN/A
6:15 pm39 °FPassing clouds.1 mph65%30.45 "HgN/A
5:45 pm39 °FPassing clouds.2 mph61%30.45 "HgN/A
5:15 pm39 °FPassing clouds.2 mph56%30.45 "HgN/A
4:45 pm39 °FPartly sunny.5 mph61%30.45 "HgN/A
4:15 pm39 °FPartly sunny.6 mph61%30.45 "HgN/A
3:45 pm41 °FPartly sunny.8 mph53%30.45 "HgN/A
3:15 pm41 °FPartly sunny.8 mph53%30.45 "HgN/A
2:45 pm41 °FPartly sunny.9 mph53%30.48 "HgN/A
2:15 pm39 °FPartly sunny.9 mph56%30.48 "HgN/A
1:45 pm39 °FPartly sunny.9 mph52%30.48 "HgN/A
1:15 pm39 °FPartly sunny.9 mph52%30.48 "HgN/A
12:45 pm39 °FPartly sunny.10 mph52%30.48 "HgN/A
12:15 pm39 °FPartly sunny.12 mph56%30.48 "HgN/A
Weather by CustomWeather, © 2017

See weather overviewHow to use our weather pages